#timestamp,LO_Frequency,Hit,StdDev 
1512770415.7,286046996.5,N
1512770435.6,286046999.4,N
1512770455.4,286046998.5,N
1512770475.3,286046999.1,N
1512770495.1,286046999.5,N
1512770496.0,286046999.5,N
1512770515.8,286046996.7,N
1512770535.7,286046996.9,N
1512770555.5,286047001.0,N
1512770575.4,286047000.6,N
1512770595.2,286047001.2,N
1512770615.0,286047000.0,N
1512770615.9,286047000.0,N
1512770635.8,286047000.9,N
1512770655.6,286047004.4,N
1512770675.4,286047005.8,Y
1512770695.3,286047006.2,P
1512770715.1,286047004.8,N
1512770735.9,286047002.9,N
1512770755.7,286047004.7,N
1512770775.5,286047003.2,N
1512770795.4,286047001.3,N
1512770815.2,286047004.4,N
1512770835.1,286047003.1,N
1512770836.0,286047003.1,N
1512770855.8,286047004.6,N
1512770875.6,286047010.8,Y
1512770895.5,286047006.7,P
1512770915.3,286047006.0,P
1512770935.1,286047004.4,P
1512770955.9,286047003.7,N
1512770975.7,286047002.2,N
1512770995.6,286047001.8,N
1512771015.4,286047005.4,Y
1512771035.2,286047003.9,P
1512771055.1,286047003.8,P
1512771056.0,286047003.8,P
1512771075.8,286047004.2,Y
1512771095.7,286046993.3,P
1512771115.5,286046995.0,N
1512771135.3,286046999.6,N
1512771155.2,286047001.2,N
1512771175.0,286047001.1,N
1512771175.9,286047001.1,N
1512771195.8,286046997.3,N
1512771215.6,286047000.8,N
1512771235.4,286046998.7,N
1512771255.3,286047001.0,N
1512771275.1,286046997.0,N
1512771295.8,286046992.2,N
1512771315.7,286046991.2,N
1512771335.5,286046989.9,N
1512771355.4,286046990.2,N
1512771375.2,286046992.3,N
1512771395.0,286046991.0,N
1512771395.9,286046991.0,N
1512771415.8,286046990.3,N
1512771435.6,286046994.8,N
1512771455.5,286046995.0,N
1512771475.3,286046996.2,N
1512771495.1,286046994.1,N
1512771515.9,286046996.3,N
1512771535.7,286046993.4,N
1512771555.5,286046997.8,N
1512771575.4,286046996.8,N
1512771595.2,286046996.3,N
1512771615.1,286046997.6,N
1512771616.0,286046997.6,N
1512771635.8,286046995.7,N
1512771655.6,286046994.0,N
1512771675.5,286046993.0,N
1512771695.3,286046991.1,N
1512771715.1,286046989.8,N
1512771735.9,286046991.3,N
1512771755.7,286046992.9,N
1512771775.6,286046992.3,N
1512771795.4,286046991.9,N
1512771815.2,286046996.1,N
1512771835.1,286046998.0,N
1512771836.0,286046998.0,N
1512771855.8,286046995.0,N
1512771875.7,286046995.3,N
1512771895.5,286046994.1,N
1512771915.3,286046993.8,N
1512771935.2,286046995.9,N
1512771955.0,286046996.0,N
1512771955.9,286046996.0,N
1512771975.8,286046995.5,N
1512771995.6,286046996.3,N
1512772015.4,286046994.2,N
1512772035.3,286046996.3,N
1512772055.1,286046991.7,Y
1512772075.8,286047000.8,P
1512772095.7,286047000.8,N
1512772115.5,286046996.8,N
1512772135.4,286046997.3,N
1512772155.2,286046997.6,N
1512772175.0,286046999.6,N
1512772175.9,286046999.6,N
1512772195.8,286046998.7,N
1512772215.6,286046998.6,N
1512772235.5,286046998.7,N
1512772255.3,286047002.3,N
1512772275.1,286046999.9,N
1512772295.9,286046998.7,N
1512772315.7,286046997.7,N
1512772335.5,286046994.9,N
1512772355.4,286046998.9,N
1512772375.2,286046998.7,N
1512772395.1,286046998.9,N
1512772396.0,286046998.9,N
1512772415.8,286046995.1,N
1512772435.6,286046995.2,N
1512772455.5,286046996.2,N
1512772475.3,286046995.1,N
1512772495.2,286046997.9,N
1512772515.9,286046999.4,N
1512772535.7,286046995.3,N
1512772555.6,286046993.7,Y
1512772575.4,286046993.8,P
1512772595.2,286046998.0,N
1512772615.1,286046996.6,N
1512772616.0,286046996.6,N
1512772635.8,286047000.0,N
1512772655.7,286047000.8,N
1512772675.5,286046997.5,N
1512772695.3,286046995.4,N
1512772715.2,286046997.4,N
1512772735.0,286046997.0,N
1512772735.9,286046997.0,N
1512772755.8,286047001.0,N
1512772775.6,286047000.4,N
1512772795.4,286046996.7,N
1512772815.3,286046999.5,N
1512772835.1,286047001.2,N
1512772855.9,286046999.6,N
1512772875.7,286046999.1,N
1512772895.5,286046999.7,N
1512772915.4,286047003.3,N
1512772935.2,286047007.6,Y
1512772955.0,286047008.1,P
1512772956.0,286047008.1,N
1512772975.8,286047006.7,N
1512772995.6,286047004.8,N
1512773015.5,286047005.7,N
1512773035.3,286047004.6,N
1512773055.1,286047003.2,N
1512773075.9,286047003.5,N
1512773095.7,286047001.6,N
1512773115.6,286046999.1,N
1512773135.4,286047000.8,N
1512773155.2,286047002.5,N
1512773175.1,286047002.6,N
1512773176.0,286047002.6,N
1512773195.8,286047004.4,N
1512773215.7,286047003.5,N
1512773235.5,286047005.2,N
1512773255.3,286047005.6,N
1512773275.2,286047000.9,N
1512773295.0,286046998.6,N
1512773295.9,286046998.6,N
1512773315.7,286047000.4,N
1512773335.6,286046999.7,N
1512773355.4,286046999.7,N
1512773375.3,286046998.9,N
1512773395.1,286046998.5,N
1512773396.0,286046998.5,N
1512773415.8,286046999.9,N
1512773435.7,286047002.3,N
1512773455.5,286047005.6,N
1512773475.4,286047001.7,N
1512773495.2,286047003.4,N
1512773515.0,286047001.5,N
1512773515.9,286047001.5,N
1512773535.8,286047000.7,N
1512773555.6,286047000.7,N
1512773575.4,286047002.5,N
1512773595.3,286047002.0,N
1512773615.1,286047002.4,N
1512773635.9,286046999.1,N
1512773655.7,286046998.8,N
1512773675.5,286046999.6,N
1512773695.4,286046998.3,N
1512773715.2,286047000.1,N
1512773735.1,286047002.1,N
1512773736.0,286047002.1,N
1512773755.8,286047004.2,N
1512773775.6,286046998.5,N
1512773795.5,286046998.8,N
1512773815.3,286047001.8,N
1512773835.2,286047006.0,Y
1512773855.9,286047002.6,P
1512773875.7,286046998.7,N
1512773895.6,286046999.6,N
1512773915.4,286046996.8,N
1512773935.2,286046996.9,N
1512773955.1,286047001.0,N
1512773956.0,286047001.0,N
1512773975.8,286047002.4,N
1512773995.7,286047004.1,N
